Change the Weather History Date:

Saturday, March 1, 2014

  Actual Average (KGEZ) Record (KGEZ)
Temperature  
Mean Temperature 40 °F 36 °F  
Max Temperature 53 °F 45 °F 57 °F (2004)
Min Temperature 28 °F 27 °F 19 °F (2009)
Degree Days  
Heating Degree Days 24 29  
Month to date heating degree days 29  
Since 1 July heating degree days 4192  
Cooling Degree Days 0 0  
Month to date cooling degree days 0  
Year to date cooling degree days 0  
Moisture  
Dew Point 24 °F    
Average Humidity 56    
Maximum Humidity 87    
Minimum Humidity 41    
Precipitation  
Precipitation 0.00 in 0.08 in 0.91 in (2007)
Month to date precipitation 0.08  
Year to date precipitation 4.83  
Sea Level Pressure  
Sea Level Pressure 30.12 in    
Wind  
Wind Speed 4 mph (West)    
Max Wind Speed 13 mph    
Max Gust Speed 18 mph    
Visibility 10 miles    
Events Rain    
T = Trace of Precipitation, MM = Missing Value Source: NWS Daily Summary

Daily Weather History Graph

Daily Weather History Graph

Search for Another Location

Airport or City:

Trip Planner

Search our weather history database for the weather conditions in past years. The results will help you decide how hot, cold, wet, or windy it might be!

Date:

Astronomy

Mar. 01, 2014 Rise Set
Actual Time 7:16 AM EST 6:36 PM EST
Civil Twilight 6:49 AM EST 7:03 PM EST
Nautical Twilight 6:18 AM EST 7:34 PM EST
Astronomical Twilight 5:47 AM EST 8:05 PM EST
Moon 7:10 AM EST (3/1) 7:22 PM EST (3/1)
Length of Visible Light 12h 13m
Length of Day
11h 19m
New Moon, 0% of the Moon is Illuminated
Mar 1
New Moon
Mar 8
First Quarter
Mar 16
Full
Mar 23
Last Quarter
Mar 30
New

Hourly Weather History & Observations

Time (EST) Temp. Windchill Dew Point Humidity Pressure Visibility Wind Dir Wind Speed Gust Speed Precip Events Conditions
12:15 AM 28.4 °F - 12.2 °F 51% 30.07 in 10.0 mi Calm Calm - N/A   Unknown
12:35 AM 30.2 °F - 14.0 °F 51% 30.07 in 10.0 mi Calm Calm - N/A   Unknown
12:55 AM 32.0 °F 28.7 °F 12.2 °F 44% 30.07 in 10.0 mi SSE 3.5 mph - N/A   Unknown
1:15 AM 32.0 °F 27.5 °F 12.2 °F 44% 30.06 in 10.0 mi SSE 4.6 mph - N/A   Unknown
1:35 AM 32.0 °F 28.7 °F 12.2 °F 44% 30.06 in 10.0 mi SSE 3.5 mph - N/A   Unknown
1:55 AM 32.0 °F 28.7 °F 12.2 °F 44% 30.06 in 10.0 mi SSE 3.5 mph - N/A   Unknown
2:15 AM 32.0 °F 28.7 °F 12.2 °F 44% 30.06 in 10.0 mi SSE 3.5 mph - N/A   Unknown
2:35 AM 32.0 °F 28.7 °F 12.2 °F 44% 30.07 in 10.0 mi South 3.5 mph - N/A   Unknown
2:55 AM 32.0 °F 27.5 °F 12.2 °F 44% 30.07 in 10.0 mi South 4.6 mph - N/A   Unknown
3:20 AM 32.0 °F 28.7 °F 12.2 °F 44% 30.08 in 10.0 mi South 3.5 mph - N/A   Unknown
3:35 AM 32.0 °F - 12.2 °F 44% 30.08 in 10.0 mi Calm Calm - N/A   Unknown
3:55 AM 32.0 °F - 14.0 °F 48% 30.08 in 10.0 mi Calm Calm - N/A   Unknown
4:15 AM 32.0 °F - 15.8 °F 51% 30.08 in 10.0 mi Calm Calm - N/A   Unknown
4:35 AM 32.0 °F - 14.0 °F 48% 30.08 in 10.0 mi Calm Calm - N/A   Unknown
4:55 AM 32.0 °F - 14.0 °F 48% 30.08 in 10.0 mi Calm Calm - N/A   Unknown
5:15 AM 32.0 °F - 17.6 °F 55% 30.08 in 10.0 mi Calm Calm - N/A   Unknown
5:35 AM 32.0 °F - 15.8 °F 51% 30.08 in 10.0 mi Calm Calm - N/A   Unknown
5:55 AM 32.0 °F - 14.0 °F 48% 30.08 in 10.0 mi Calm Calm - N/A   Unknown
6:15 AM 32.0 °F - 17.6 °F 55% 30.10 in 10.0 mi Calm Calm - N/A   Unknown
6:35 AM 32.0 °F - 15.8 °F 51% 30.10 in 10.0 mi Calm Calm - N/A   Unknown
6:55 AM 32.0 °F - 19.4 °F 60% 30.10 in 10.0 mi Calm Calm - N/A   Unknown
7:15 AM 32.0 °F - 19.4 °F 60% 30.11 in 10.0 mi Calm Calm - N/A   Unknown
7:35 AM 32.0 °F - 17.6 °F 55% 30.12 in 10.0 mi Calm Calm - N/A   Unknown
7:55 AM 33.8 °F - 17.6 °F 52% 30.13 in 10.0 mi Calm Calm - N/A   Unknown
8:15 AM 33.8 °F - 21.2 °F 60% 30.14 in 10.0 mi Calm Calm - N/A   Unknown
8:35 AM 33.8 °F 30.8 °F 21.2 °F 60% 30.14 in 10.0 mi South 3.5 mph - N/A Rain Light Rain
8:55 AM 33.8 °F - 24.8 °F 70% 30.14 in 10.0 mi Calm Calm - N/A   Unknown
9:15 AM 35.6 °F - 24.8 °F 65% 30.15 in 10.0 mi Calm Calm - N/A   Unknown
9:35 AM 37.4 °F - 26.6 °F 65% 30.15 in 10.0 mi Calm Calm - N/A   Unknown
9:55 AM 37.4 °F - 23.0 °F 56% 30.15 in 10.0 mi Calm Calm - N/A   Unknown
10:15 AM 39.2 °F - 23.0 °F 52% 30.15 in 10.0 mi Calm Calm - N/A   Unknown
10:35 AM 41.0 °F - 23.0 °F 49% 30.16 in 10.0 mi Calm Calm - N/A   Unknown
10:55 AM 41.0 °F - 24.8 °F 53% 30.16 in 10.0 mi Calm Calm - N/A   Unknown
11:15 AM 42.8 °F 39.3 °F 26.6 °F 53% 30.16 in 10.0 mi SW 5.8 mph - N/A   Unknown
11:35 AM 44.6 °F 40.2 °F 26.6 °F 49% 30.16 in 10.0 mi SW 8.1 mph - N/A   Unknown
11:55 AM 44.6 °F 41.4 °F 26.6 °F 49% 30.16 in 10.0 mi SW 5.8 mph - N/A   Unknown
12:15 PM 46.4 °F 43.5 °F 26.6 °F 46% 30.16 in 10.0 mi WSW 5.8 mph - N/A   Unknown
12:35 PM 44.6 °F 40.2 °F 28.4 °F 53% 30.16 in 10.0 mi West 8.1 mph - N/A   Unknown
12:55 PM 46.4 °F 42.4 °F 28.4 °F 50% 30.16 in 10.0 mi WSW 8.1 mph - N/A   Unknown
1:15 PM 50.0 °F - 28.4 °F 43% 30.14 in 10.0 mi SW 5.8 mph - N/A   Unknown
1:35 PM 50.0 °F - 28.4 °F 43% 30.11 in 10.0 mi SW 8.1 mph - N/A   Unknown
1:55 PM 50.0 °F - 28.4 °F 43% 30.10 in 10.0 mi SSW 10.4 mph - N/A   Unknown
2:15 PM 51.8 °F - 28.4 °F 41% 30.09 in 10.0 mi WSW 9.2 mph - N/A   Unknown
2:35 PM 53.6 °F - 30.2 °F 41% 30.09 in 10.0 mi WSW 12.7 mph 17.3 mph N/A   Unknown
2:55 PM 51.8 °F - 30.2 °F 44% 30.09 in 10.0 mi WSW 10.4 mph 18.4 mph N/A   Unknown
3:15 PM 53.6 °F - 30.2 °F 41% 30.08 in 10.0 mi West 8.1 mph - N/A   Unknown
3:35 PM 53.6 °F - 32.0 °F 44% 30.09 in 10.0 mi WSW 9.2 mph 16.1 mph N/A   Unknown
3:55 PM 51.8 °F - 32.0 °F 47% 30.09 in 10.0 mi West 9.2 mph - N/A   Unknown
4:15 PM 51.8 °F - 32.0 °F 47% 30.09 in 10.0 mi WSW 11.5 mph 16.1 mph N/A   Unknown
4:35 PM 50.0 °F - 32.0 °F 50% 30.09 in 10.0 mi WSW 8.1 mph - N/A   Unknown
4:55 PM 50.0 °F - 32.0 °F 50% 30.10 in 10.0 mi West 8.1 mph - N/A   Unknown
5:15 PM 50.0 °F - 32.0 °F 50% 30.11 in 10.0 mi WNW 6.9 mph - N/A   Unknown
5:35 PM 46.4 °F 43.5 °F 32.0 °F 57% 30.12 in 10.0 mi WNW 5.8 mph - N/A   Unknown
5:55 PM 46.4 °F 44.3 °F 32.0 °F 57% 30.12 in 10.0 mi WNW 4.6 mph - N/A   Unknown
6:15 PM 46.4 °F 45.2 °F 32.0 °F 57% 30.12 in 10.0 mi WNW 3.5 mph - N/A   Unknown
6:35 PM 46.4 °F 43.5 °F 32.0 °F 57% 30.12 in 10.0 mi WNW 5.8 mph - N/A   Unknown
6:55 PM 44.6 °F 42.2 °F 32.0 °F 61% 30.11 in 10.0 mi NW 4.6 mph - N/A   Unknown
7:15 PM 41.0 °F 34.3 °F 28.4 °F 61% 30.12 in 10.0 mi North 11.5 mph - N/A   Unknown
7:35 PM 41.0 °F 35.2 °F 28.4 °F 61% 30.13 in 10.0 mi North 9.2 mph - N/A   Unknown
7:55 PM 39.2 °F 33.0 °F 28.4 °F 65% 30.14 in 10.0 mi North 9.2 mph - N/A   Unknown
8:15 PM 37.4 °F 32.1 °F 28.4 °F 70% 30.16 in 10.0 mi North 6.9 mph 10.4 mph N/A   Unknown
8:35 PM 35.6 °F 29.2 °F 28.4 °F 75% 30.17 in 10.0 mi North 8.1 mph - N/A   Unknown
8:55 PM 35.6 °F 28.0 °F 28.4 °F 75% 30.18 in 10.0 mi NNW 10.4 mph - N/A   Unknown
9:15 PM 35.6 °F 29.9 °F 28.4 °F 75% 30.17 in 10.0 mi North 6.9 mph - N/A   Unknown
9:35 PM 33.8 °F 27.7 °F 28.4 °F 81% 30.18 in 10.0 mi NNW 6.9 mph - N/A   Unknown
9:55 PM 33.8 °F 25.8 °F 28.4 °F 81% 30.19 in 10.0 mi NNW 10.4 mph - N/A   Unknown
10:20 PM 33.8 °F 24.8 °F 28.4 °F 81% 30.20 in 10.0 mi NNW 12.7 mph - N/A   Unknown
10:35 PM 32.0 °F 22.5 °F 28.4 °F 87% 30.21 in 7.0 mi NNW 12.7 mph - N/A   Unknown
10:55 PM 32.0 °F 23.6 °F 28.4 °F 87% 30.19 in 7.0 mi NNW 10.4 mph - N/A   Unknown
11:15 PM 32.0 °F 25.6 °F 28.4 °F 87% 30.18 in 7.0 mi North 6.9 mph - N/A   Unknown
11:35 PM 32.0 °F 24.8 °F 28.4 °F 87% 30.19 in 7.0 mi North 8.1 mph - N/A   Unknown
11:55 PM 32.0 °F 24.2 °F 26.6 °F 80% 30.19 in 7.0 mi North 9.2 mph - N/A   Unknown